Terminal Aerodrome Forecast
Issued by NWS Quad Cities IA IL

Home | Current Version | Previous Version | Text Only | Print | Product List | Glossary On
Versions: 1 2 3 4 5 6 7 8 9 10 11 12 13 14 15 16 17 18 19 20 21 22 23 24 25 26 27 28 29 30 31 32 33 34 35 36 37
374
FTUS43 KDVN 011134
TAFMLI
TAF
KMLI 011134Z 0112/0212 05010KT 1 1/2SM -DZ BR OVC005
      TEMPO 0112/0115 2SM -DZ BR OVC005
     FM011500 05010KT 4SM BR OVC005
     FM011700 05009KT 4SM BR VCSH OVC005
     FM012300 02008KT 6SM BR OVC005
     FM020600 36007KT 6SM BR OVC015
     FM020900 36006KT 5SM BR BKN023=

USA.gov is the U.S. government's official web portal to all federal, state and local government web resources and services.